Flag for U.S.A. Weather past 2 weeks in Bismarck, North Dakota, U.S.A.

Now
58 °F

Passing clouds.


Feels Like: 54 °F
Forecast: 29 / 43 °F
Wind: 22 mph from Northwest

Location: Bismarck Municipal Airport

Current Time: Apr 1, 2015 at 7:27:12 PM

Latest Report: Apr 1, 2015 at 6:52 PM


Visibility: 10 mi

Pressure: 29.68 "Hg

Humidity: 27%

Dew point: 24 °F

Location of BismarckLocation

Historic Weather in Bismarck — Graph

°F

Bismarck temperature yesterday

Maximum temperature yesterday: 76 °F (at 4:52 PM)
Minimum temperature yesterday: 28 °F (at 5:52 AM)
Average temperature yesterday: 52 °F

Past Weeks' High & Low Weather Summary

 TemperatureHumidityPressure
High76 °F (Mar 31, 4:52 PM)100% (Mar 28, 2:52 AM)30.42 "Hg (Mar 28, 2:52 AM)
Low21 °F (Mar 23, 7:52 AM)21% (Mar 31, 4:52 PM)29.36 "Hg (Apr 1, 5:52 AM)
Average39 °F68%30.02 "Hg
* Reported Mar 17 5:52 PM — Apr 1 5:52 PM, Bismarck, Weather by CustomWeather, © 2015

Note: Actual official high and low records may vary slightly from our data, if they occured in-between our weather recording intervals... More about our weather records

Advertising

Bismarck weather history for previous 24 hours

 ConditionsComfort  
Time TempWeatherWind HumidityBarometerVisibility
5:52 PM
Wed, Apr 1
60 °FBroken clouds.21 mph31%29.64 "Hg10 mi
4:52 PM60 °FBroken clouds.20 mph31%29.62 "Hg10 mi
3:52 PM63 °FSunny.21 mph25%29.58 "Hg10 mi
2:52 PM64 °FSunny.25 mph24%29.57 "Hg10 mi
1:52 PM59 °FSunny.23 mph35%29.57 "Hg10 mi
12:52 PM59 °FSunny.24 mph36%29.55 "Hg10 mi
11:52 AM59 °FSunny.25 mph42%29.52 "Hg10 mi
10:52 AM60 °FSunny.24 mph49%29.49 "Hg10 mi
9:52 AM56 °FSunny.18 mph55%29.47 "Hg10 mi
8:52 AM52 °FSunny.21 mph59%29.44 "Hg10 mi
7:52 AM47 °FClear.3 mph59%29.41 "Hg10 mi
6:52 AM44 °FClear.3 mph68%29.38 "Hg10 mi
5:52 AM49 °FClear.8 mph57%29.36 "Hg10 mi
4:52 AM49 °FClear.7 mph59%29.39 "Hg10 mi
3:52 AM48 °FClear.7 mph63%29.44 "Hg10 mi
2:52 AM47 °FClear.8 mph69%29.48 "Hg10 mi
1:52 AM48 °FClear.10 mph66%29.51 "Hg10 mi
12:52 AM49 °FClear.14 mph61%29.54 "Hg10 mi
11:52 PM
Tue, Mar 31
54 °FClear.6 mph49%29.56 "Hg10 mi
10:52 PM57 °FClear.9 mph44%29.60 "Hg10 mi
9:52 PM58 °FClear.6 mph44%29.62 "Hg10 mi
8:52 PM61 °FSunny.7 mph36%29.61 "Hg10 mi
7:52 PM62 °FSunny.10 mph38%29.62 "Hg10 mi
Weather by CustomWeather, © 2015

See weather overviewHow to use our weather pages